Regional Weather Roundup
Issued by NWS

Home | Current Version | Previous Version | Text Only | Print | Product List | Glossary Off
Versions: 1 2 3 4 5 6 7 8 9 10 11 12 13 14 15 16 17 18 19 20 21 22 23 24 25 26 27 28 29 30 31 32 33 34 35 36 37 38 39 40 41 42 43 44 45 46 47 48 49 50

000
ASUS44 KMEG 272100
RWRTN
TENNESSEE HOURLY STATE WEATHER ROUNDUP
NATIONAL WEATHER SERVICE MEMPHIS TN
400 PM CDT WED MAY 27 2015

TNZ002-004-019-021-049-052-054-088>092-272200-
WEST TENNESSEE

CITY           SKY/WX    TMP DP  RH WIND       PRES   REMARKS
MEMPHIS INTL   CLOUDY    79  65  62 S7        30.10F
NWS MEMPHIS      N/A     79 N/A N/A MISG        N/A
JACKSON        CLOUDY    77  66  68 S7        30.11F
DYERSBURG      CLOUDY    75  57  53 CALM      30.11F
LEXINGTON      MOSUNNY   70  68  94 SE7       30.13F
$$

TNZ008-025-027-028-033-062-065-066-272200-
NORTH MIDDLE TENNESSEE

CITY           SKY/WX    TMP DP  RH WIND       PRES   REMARKS
NASHVILLE      CLOUDY    71  67  87 S3        30.16F
CLARKSVILLE    CLOUDY    71  66  84 S5        30.13F
COOKEVILLE     MOSUNNY   79  68  69 W9        30.17S
CROSSVILLE     MOSUNNY   78  61  55 SW3       30.21F
$$

TNZ061-075-076-078-094-096-097-272200-
SOUTH MIDDLE TENNESSEE

CITY           SKY/WX    TMP DP  RH WIND       PRES   REMARKS
FAYETTEVILLE     N/A    N/A N/A N/A MISG      30.16F
TULLAHOMA      MOSUNNY   81  64  57 CALM      30.18F
WINCHESTER     SUNNY     81  66  61 NW3       30.16F
MCMINNVILLE    MOSUNNY   73  64  73 NW14      30.19R
COLUMBIA       PTSUNNY   75  70  83 VRB3      30.15S
SHELBYVILLE    MOSUNNY   75  70  83 N9        30.18S
$$

TNZ017-018-042-046-047-272200-
NORTHEAST TENNESSEE

CITY           SKY/WX    TMP DP  RH WIND       PRES   REMARKS
TRI CITIES     PTSUNNY   83  56  39 NW7       30.18F
ELIZABETHTON   CLEAR     82  57  42 NW7       30.18F
$$

TNZ012-013-036-069-073-074-272200-
CENTRAL EAST TENNESSEE

CITY           SKY/WX    TMP DP  RH WIND       PRES   REMARKS
KNOXVILLE      PTSUNNY   82  59  45 W10G17    30.17F
OAK RIDGE      MOSUNNY   83  62  49 VRB3      30.18F
GATLINBURG       N/A     84  61  45 NE10      30.16F
$$

TNZ083-085-099-272200-
SOUTHEAST TENNESSEE

CITY           SKY/WX    TMP DP  RH WIND       PRES   REMARKS
CHATTANOOGA    PTSUNNY   83  64  52 E8        30.16F
$$

SKY/WX REPORTED AS FAIR MEANS FEW OR NO CLOUDS BELOW
12 THOUSAND FEET.



USA.gov is the U.S. government's official web portal to all federal, state and local government web resources and services.